Tracking 31027 objects as of 19-Jul-2025
HD Live streaming from Space Station
objects crossing your sky now

TURKSAT 1C

Track TURKSAT 1C now!
TURKSAT 1C is classified as:


NORAD ID: 23949
Int'l Code: 1996-040B
Perigee: 35,760.4 km
Apogee: 35,817.3 km
Inclination: 11.5 °
Period: 1,435.8 minutes
Semi major axis: 42159 km
RCS: 2.5119 m2 (large)
Launch date: July 9, 1996
Source: Turkey (TURK)
Launch site: FRENCH GUIANA (FRGUI)

16 Ku-band transponders; radio and TV communications to Turkey and neighboring countries.
Your satellite tracking list
SKOLTECH-B2
Track 1 satellite(s)




NASA's NSSDC Master Catalog

Two Line Element Set (TLE):
1 23949U 96040B   25199.74132100  .00000090  00000-0  00000-0 0  9999
2 23949  11.5430  32.7060 0006745 147.3522  40.8909  1.00289260106338
Source of the keplerian elements: AFSPC